Starlink 35724

operational
NORAD ID: 66280 Int'l Des: 2025-247 Owner: SPXS Country: US Constellation: starlink
NOTLE

Starlink 35724について

説明を読み込み中...

リアルタイム位置

3D地球を読み込み中...

次回通過

高度履歴

Altitude vs Time

uPlot chart will show altitude changes over time

軌道要素

1 66280C 25247Q 25305.06923611 .00469310 00000+0 70467-3 0 3055
2 66280 53.1566 79.7457 0008828 259.7202 335.4675 16.03413601 11
Epoch: Nov 1, 2025 • Age: 46 hours

現在のステータス

高度 262.4 km
速度 7.75 km/s
衛星直下点 14.72°N, 74.9°E
打ち上げ日 Oct 31, 2025
運用期間 2 days
タイプ internet

技術仕様

分類 Payload
質量 575.00 kg
乾燥質量 530.00 kg
総質量 575.00 kg
長さ 0.30 m
直径 4.10 m
スパン 29.00 m
形状 Box + pan
製造者 SPXS
バスタイプ Starlink V2MO
フェーズステータス In Orbit
所有者/国 SPXS/US

大規模コンステレーション

Loading constellations...